Watertown, NY

4:24 PM EST on December 15, 2019 (GMT -0500)
Watertown International

Weather History for KART - November, 2019

Change the Weather History Date:

Tuesday, November 12, 2019

  Actual Average Record
Temperature  
Mean Temperature 16 °F 40 °F  
Max Temperature 23 °F 48 °F 70 °F (1964)
Min Temperature 8 °F 31 °F 15 °F (1987)
Degree Days  
Heating Degree Days 50 25  
Month to date heating degree days 358 282  
Since 1 July heating degree days 999 1078  
Cooling Degree Days 0 0  
Month to date cooling degree days 0 0  
Year to date cooling degree days 348 362  
Moisture  
Dew Point 13 °F    
Average Humidity 77    
Maximum Humidity 92    
Minimum Humidity 48    
Precipitation  
Precipitation 0.01 in 0.12 in 1.08 in (1963)
Month to date precipitation 0.98 1.46  
Year to date precipitation 40.25 30.63  
Sea Level Pressure  
Sea Level Pressure 30.02 in    
Wind  
Wind Speed 11 mph ()    
Max Wind Speed 21 mph    
Max Gust Speed 27 mph    
Visibility 5.4 miles    
Events Fog , Snow    
T = Trace of Precipitation, MM = Missing Value Source: Averaged Metar Reports

Daily Weather History Graph

Daily Weather History Graph

Search for Another Location

Airport or City:

Astronomy

Nov. 12, 2019 Rise Set
Actual Time 6:54 AM EST 4:41 PM EST
Civil Twilight 6:23 AM EST 5:11 PM EST
Nautical Twilight 5:49 AM EST 5:46 PM EST
Astronomical Twilight 5:15 AM EST 6:20 PM EST
Moon 5:07 PM EST (11/12) 6:42 AM EST (11/12)
Length of Visible Light 10h 48m
Length of Day
9h 46m
Full, 100% of the Moon is Illuminated
Nov 12
Full
Nov 19
Last Quarter
Nov 26
New
Dec 4
First Quarter
Dec 12
Full

Hourly Weather History & Observations

Time (EST) Temp. Windchill Dew Point Humidity Pressure Visibility Wind Dir Wind Speed Gust Speed Precip Events Conditions
12:07 AM 21.0 °F 8.1 °F 18.0 °F 88% 29.94 in 0.8 mi NNE 13.8 mph - 0.00 in Snow Light Snow
12:31 AM 21.0 °F 7.6 °F 18.0 °F 88% 29.93 in 0.5 mi NNE 15.0 mph - 0.00 in Fog , Snow Snow
12:56 AM 21.0 °F 6.6 °F 17.1 °F 85% 29.95 in 0.5 mi NNE 17.3 mph 23.0 mph 0.00 in Fog , Snow Snow
1:03 AM 21.0 °F 6.6 °F 17.1 °F 85% 29.92 in 0.2 mi NNE 17.3 mph - 0.00 in Fog , Snow Snow
1:16 AM 19.9 °F 4.8 °F 18.0 °F 92% 29.91 in 0.2 mi NNE 18.4 mph 24.2 mph 0.01 in Fog , Snow Snow
1:27 AM 19.9 °F 6.2 °F 17.1 °F 89% 29.91 in 0.5 mi NNE 15.0 mph - 0.01 in Fog , Snow Snow
1:56 AM 19.9 °F 5.7 °F 17.1 °F 89% 29.95 in 0.5 mi NNE 16.1 mph 21.9 mph 0.01 in Fog , Snow Snow
2:13 AM 19.9 °F 6.2 °F 17.1 °F 89% 29.92 in 0.5 mi NNE 15.0 mph 20.7 mph 0.00 in Fog , Snow Snow
2:56 AM 19.9 °F 7.3 °F 16.0 °F 85% 29.94 in 1.5 mi NNE 12.7 mph - 0.00 in Snow Light Snow
3:06 AM 19.9 °F 7.9 °F 17.1 °F 89% 29.92 in 2.5 mi NNE 11.5 mph - 0.00 in Snow Light Snow
3:18 AM 19.9 °F 7.9 °F 17.1 °F 89% 29.92 in 1.2 mi North 11.5 mph - 0.00 in Snow Light Snow
3:31 AM 19.9 °F 7.9 °F 16.0 °F 85% 29.92 in 0.8 mi NNE 11.5 mph - 0.00 in Snow Light Snow
3:56 AM 19.9 °F 7.3 °F 16.0 °F 85% 29.96 in 0.8 mi NNE 12.7 mph 19.6 mph 0.00 in Snow Light Snow
4:38 AM 19.9 °F 8.6 °F 16.0 °F 85% 29.94 in 1.0 mi North 10.4 mph - 0.00 in Snow Light Snow
4:45 AM 19.9 °F 7.3 °F 16.0 °F 85% 29.94 in 1.2 mi North 12.7 mph - 0.00 in Snow Light Snow
4:56 AM 19.0 °F 7.5 °F 16.0 °F 88% 29.96 in 1.0 mi NNE 10.4 mph - 0.00 in Snow Light Snow
5:25 AM 19.0 °F 9.0 °F 16.0 °F 88% 29.95 in 1.8 mi North 8.1 mph - 0.00 in Snow Light Snow
5:42 AM 19.0 °F 8.2 °F 16.0 °F 88% 29.95 in 0.5 mi North 9.2 mph - 0.00 in Fog , Snow Light Snow
5:49 AM 19.0 °F 8.2 °F 16.0 °F 88% 29.95 in 1.0 mi North 9.2 mph - 0.00 in Snow Light Snow
5:56 AM 19.0 °F 9.0 °F 16.0 °F 88% 29.98 in 2.5 mi North 8.1 mph - 0.00 in   Overcast
6:03 AM 19.9 °F 9.3 °F 16.0 °F 85% 29.96 in 6.0 mi North 9.2 mph - 0.00 in   Overcast
6:28 AM 19.0 °F 10.0 °F 15.1 °F 85% 29.96 in 2.5 mi North 6.9 mph - 0.00 in Snow Light Snow
6:38 AM 19.0 °F 9.0 °F 15.1 °F 85% 29.97 in 4.0 mi North 8.1 mph - 0.00 in Snow Light Snow
6:56 AM 19.0 °F 10.0 °F 15.1 °F 85% 30.00 in 5.0 mi North 6.9 mph - 0.00 in Snow Light Snow
7:08 AM 19.0 °F 12.3 °F 14.0 °F 81% 29.98 in 6.0 mi North 4.6 mph - 0.00 in   Haze
7:15 AM 18.0 °F 8.7 °F 14.0 °F 84% 29.98 in 8.0 mi NNW 6.9 mph - 0.00 in   Overcast
7:25 AM 18.0 °F 11.1 °F 14.0 °F 84% 29.99 in 10.0 mi NW 4.6 mph - 0.00 in   Overcast
7:54 AM 19.4 °F 7.9 °F 14.0 °F 80% 30.01 in 10.0 mi NNW 10.4 mph - 0.00 in   Overcast
7:56 AM 19.0 °F 8.2 °F 14.0 °F 81% 30.04 in 10.0 mi NNW 9.2 mph - 0.00 in   Overcast
8:08 AM 19.0 °F 11.1 °F 14.0 °F 81% 30.01 in 10.0 mi NW 5.8 mph - N/A   Overcast
8:33 AM 19.9 °F 8.6 °F 15.1 °F 81% 30.02 in 2.5 mi NW 10.4 mph - N/A   Haze
8:41 AM 19.9 °F 9.3 °F 14.0 °F 78% 30.02 in 7.0 mi NW 9.2 mph - N/A   Overcast
8:56 AM 19.9 °F 7.3 °F 14.0 °F 78% 30.05 in 6.0 mi NNW 12.7 mph - N/A   Haze
9:56 AM 19.9 °F 8.6 °F 12.0 °F 71% 30.07 in 8.0 mi WNW 10.4 mph - N/A   Overcast
10:56 AM 21.0 °F 9.9 °F 12.0 °F 68% 30.07 in 10.0 mi NW 10.4 mph - N/A   Overcast
11:56 AM 21.9 °F 9.8 °F 10.9 °F 63% 30.07 in 10.0 mi NW 12.7 mph - N/A   Overcast
12:30 PM 21.9 °F 8.7 °F 10.9 °F 63% 30.05 in 10.0 mi WNW 15.0 mph - N/A   Mostly Cloudy
12:56 PM 21.0 °F 9.9 °F 10.9 °F 65% 30.08 in 10.0 mi NW 10.4 mph - N/A   Mostly Cloudy
1:56 PM 21.9 °F 7.3 °F 10.0 °F 60% 30.09 in 10.0 mi WNW 18.4 mph - N/A   Mostly Cloudy
2:56 PM 21.9 °F 7.8 °F 8.1 °F 55% 30.10 in 10.0 mi WNW 17.3 mph - N/A   Partly Cloudy
3:56 PM 19.9 °F 7.9 °F 6.1 °F 55% 30.11 in 10.0 mi WNW 11.5 mph - N/A   Clear
4:56 PM 21.0 °F 9.9 °F 7.0 °F 55% 30.12 in 10.0 mi NW 10.4 mph - N/A   Overcast
5:56 PM 19.0 °F 5.0 °F 3.9 °F 52% 30.14 in 10.0 mi NW 15.0 mph - N/A   Partly Cloudy
6:56 PM 18.0 °F 2.6 °F 1.0 °F 48% 30.16 in 10.0 mi NW 17.3 mph - N/A   Clear
7:56 PM 16.0 °F 3.6 °F 1.9 °F 54% 30.17 in 10.0 mi NW 10.4 mph - N/A   Clear
8:56 PM 14.0 °F 2.0 °F 1.9 °F 59% 30.19 in 10.0 mi NW 9.2 mph - N/A   Clear
9:56 PM 12.9 °F 0.7 °F 1.9 °F 62% 30.20 in 10.0 mi NW 9.2 mph - N/A   Clear
10:56 PM 10.0 °F -0.9 °F 1.0 °F 67% 30.22 in 10.0 mi WNW 6.9 mph - N/A   Clear
11:56 PM 8.1 °F -3.2 °F -0.0 °F 70% 30.23 in 10.0 mi WNW 6.9 mph - N/A   Clear